[TLELIST] Archives

 

[list_settings.list_name] Current TLEs

May 12th 2022 PST

HST 1 20580U 90037B 22131.50881940 .00002052 00000-0 11091-3 0 9992 2 20580 28.4706 53.5767 0002622 0.3132 164.2744 15.10410397560626 ISS (ZARYA) 1 25544U 98067A 22132.35300373 .00005928 00000-0 11162-3 0 9992 2 25544 51.6429 154.0493 0006869 88.6298 34.7251 15.50035239339623 CXO 1 25867U 99040B 22133.66991137 .00000834 00000-0 00000+0 0 9997 2 25867 46.3041 237.5804 8781429 232.8111 359.9568 0.37814548 22823 ____________________________________________________________________ These 2-Line ...Continue Reading

[list_settings.list_name] Current TLEs

May 11th 2022 PST

HST 1 20580U 90037B 22131.17369222 .00002021 00000-0 10907-3 0 9990 2 20580 28.4705 55.7967 0002604 356.7279 141.9983 15.10408905560844 ISS (ZARYA) 1 25544U 98067A 22131.18596921 .00005968 00000-0 11237-3 0 9995 2 25544 51.6428 159.8294 0006869 86.0579 0.8296 15.50020983339441 CXO 1 25867U 99040B 22133.66991137 .00000834 00000-0 00000+0 0 9997 2 25867 46.3041 237.5804 8781429 232.8111 359.9568 0.37814548 22823 ____________________________________________________________________ These 2-Line ...Continue Reading

[list_settings.list_name] Current TLEs

May 10th 2022 PST

HST 1 20580U 90037B 22129.90488789 .00002065 00000-0 11168-3 0 9996 2 20580 28.4703 64.2014 0002551 342.8790 83.0805 15.10403997560389 ISS (ZARYA) 1 25544U 98067A 22130.42084063 .00006101 00000-0 11473-3 0 9992 2 25544 51.6430 163.6198 0006737 83.4519 51.1552 15.50011757339329 CXO 1 25867U 99040B 22131.02399188 .00000912 00000-0 00000-0 0 9991 2 25867 46.4167 237.8374 8781425 232.6615 359.7744 0.37815092 11659 ____________________________________________________________________ These 2-Line ...Continue Reading

[list_settings.list_name] Current TLEs

May 9th 2022 PST

HST 1 20580U 90037B 22128.84097035 .00002224 00000-0 12113-3 0 9996 2 20580 28.4705 71.2490 0002513 332.0868 57.4008 15.10400705560229 ISS (ZARYA) 1 25544U 98067A 22129.39807870 .00006060 00000-0 11406-3 0 9995 2 25544 51.6428 168.6868 0006710 80.1202 103.6854 15.49997993339162 CXO 1 25867U 99040B 22131.02399188 .00000912 00000-0 00000-0 0 9991 2 25867 46.4167 237.8374 8781425 232.6615 359.7744 0.37815092 11659 ____________________________________________________________________ These 2-Line ...Continue Reading

[list_settings.list_name] Current TLEs

May 8th 2022 PST

HST 1 20580U 90037B 22127.61144727 .00002676 00000-0 14801-3 0 9998 2 20580 28.4704 79.3935 0002478 318.1737 212.6060 15.10397517560039 ISS (ZARYA) 1 25544U 98067A 22128.40039874 .00006919 00000-0 12913-3 0 9994 2 25544 51.6428 173.6307 0006707 76.8335 296.2736 15.49987304339018 CXO 1 25867U 99040B 22131.02399188 .00000912 00000-0 00000+0 0 9990 2 25867 46.4167 237.8374 8781425 232.6615 359.7744 0.37815092 22819 ____________________________________________________________________ These 2-Line ...Continue Reading

[list_settings.list_name] Current TLEs

May 7th 2022 PST

HST 1 20580U 90037B 22126.34871387 .00003550 00000-0 19989-3 0 9990 2 20580 28.4702 87.7579 0002422 303.2392 187.9139 15.10394721559847 ISS (ZARYA) 1 25544U 98067A 22127.39804398 .00005016 00000-0 95898-4 0 9993 2 25544 51.6428 178.5983 0006740 73.1153 103.2283 15.49970160338854 CXO 1 25867U 99040B 22128.37944306 .00000884 00000-0 00000+0 0 9990 2 25867 46.5066 238.0539 8778959 232.5303 359.8200 0.37807978 22806 ____________________________________________________________________ These 2-Line ...Continue Reading

[list_settings.list_name] Current TLEs

May 6th 2022 PST

HST 1 20580U 90037B 22126.27873727 .00003533 00000-0 19888-3 0 9991 2 20580 28.4702 88.2215 0002419 302.4028 167.5035 15.10394279560099 ISS (ZARYA) 1 25544U 98067A 22126.41704223 .00008344 00000-0 15418-3 0 9997 2 25544 51.6430 183.4543 0006680 71.0789 27.7810 15.49960147338703 CXO 1 25867U 99040B 22128.37944306 .00000884 00000-0 00000+0 0 9990 2 25867 46.5066 238.0539 8778959 232.5303 359.8200 0.37807978 22806 ____________________________________________________________________ These 2-Line ...Continue Reading

[list_settings.list_name] Current TLEs

May 5th 2022 PST

HST 1 20580U 90037B 22124.63683353 .00002246 00000-0 12253-3 0 9992 2 20580 28.4698 99.0976 0002404 283.1970 241.3205 15.10382829559582 ISS (ZARYA) 1 25544U 98067A 22125.43344516 .00007947 00000-0 14734-3 0 9991 2 25544 51.6432 188.3271 0006638 67.7258 299.2035 15.49941064338558 CXO 1 25867U 99040B 22125.73352154 .00000786 00000-0 00000-0 0 9993 2 25867 46.5719 238.2261 8775804 232.4279 359.6759 0.37805033 11649 ____________________________________________________________________ These 2-Line ...Continue Reading

[list_settings.list_name] Current TLEs

May 4th 2022 PST

HST 1 20580U 90037B 22123.64569175 .00002174 00000-0 11827-3 0 9993 2 20580 28.4696 105.6633 0002407 271.3896 253.2298 15.10378050559432 ISS (ZARYA) 1 25544U 98067A 22124.35318411 .00007593 00000-0 14123-3 0 9995 2 25544 51.6432 193.6794 0006614 64.1524 31.1986 15.49921574338381 CXO 1 25867U 99040B 22123.09007077 .00000675 00000-0 00000+0 0 9997 2 25867 46.6395 238.3984 8772466 232.3242 359.8553 0.37804797 22780 ____________________________________________________________________ These 2-Line ...Continue Reading

[list_settings.list_name] Current TLEs

May 3rd 2022 PST

HST 1 20580U 90037B 22122.65190552 .00002523 00000-0 13902-3 0 9996 2 20580 28.4694 112.2465 0002405 259.6963 250.6342 15.10374188559281 ISS (ZARYA) 1 25544U 98067A 22123.38633331 .00009729 00000-0 17872-3 0 9995 2 25544 51.6442 198.4684 0006607 59.4874 37.5793 15.49910899338238 CXO 1 25867U 99040B 22123.09007077 .00000675 00000-0 00000+0 0 9997 2 25867 46.6395 238.3984 8772466 232.3242 359.8553 0.37804797 22780 ____________________________________________________________________ These 2-Line ...Continue Reading
  • This mailing list is a public mailing list - anyone may join or leave, at any time.
  • This mailing list is announce-only.

International Space Station (ISS) / Hubble Space Telescope (HST) / Chandra X-Ray Observatory Orbital Data via EMAIL

Privacy Policy:

Private list